Regional Weather Roundup
Issued by NWS

Home | Current Version | Previous Version | Graphics & Text | Print | Product List | Glossary On
Versions: 1 2 3 4 5 6 7 8 9 10 11 12 13 14 15 16 17 18 19 20 21 22 23 24 25 26 27
000
ASUS45 KCYS 230810
RWRWY

WYOMING REGIONAL WEATHER ROUNDUP
NATIONAL WEATHER SERVICE CHEYENNE WY
100 AM MST THU FEB 23 2017

NOTE:  "FAIR" INDICATES FEW OR NO CLOUDS BELOW 12,000 FEET
WITH NO SIGNIFICANT WEATHER AND/OR OBSTRUCTIONS TO VISIBILITY.

WYZ001-230900-
YELLOWSTONE NATIONAL PARK

CITY           SKY/WX    TMP DP  RH WIND       PRES   REMARKS
LK YELLOWSTONE   N/A     -1  -4  87 CALM      29.70F
W YELLOWSTONE  NOT AVBL

$$
WYZ002>013-054>058-071-098>099-230900-
NORTHERN WYOMING

CITY           SKY/WX    TMP DP  RH WIND       PRES   REMARKS
JACKSON        FAIR      18  14  86 NE14      29.65S WCI   4
CODY           CLOUDY    28  25  88 N13G20    29.78S WCI  17
GREYBULL       FAIR      31  26  82 NW13      29.77R WCI  21
WORLAND        MOCLDY    31  29  92 CALM      29.78R
SHERIDAN       CLOUDY    30  27  88 VRB6      29.85F WCI  24
BUFFALO        CLOUDY    29  25  85 N8        29.81F WCI  21
GILLETTE       CLOUDY    29  26  89 NE10      29.83S WCI  20
HULETT         CLOUDY    30  28  93 E8        29.86F FOG     WCI  23
NEWCASTLE      LGT SNOW  30  30 100 S5        29.84R WCI  25

$$
WYZ014>020-022>026-101>103-230900-
CENTRAL WYOMING

CITY           SKY/WX    TMP DP  RH WIND       PRES   REMARKS
BIG PINEY      CLOUDY    19  16  88 NW8       29.63F WCI   9
PINEDALE       CLOUDY    19  14  79 W3        29.64F
DUBOIS         LGT SNOW  18  14  86 W3        29.66F
LANDER         LGT SNOW  28  27  96 NE13      29.69F VSB 1   WCI  17
RIVERTON       LGT SNOW  30  25  81 NE13      29.71F WCI  20
CASPER         LGT SNOW  29  27  92 NE14      29.72F FOG     WCI  18
DOUGLAS        LGT SNOW  30  29  96 SE10      29.76S VSB 1   WCI  21

$$
WYZ021-027>030-104>119-230900-
SOUTHERN WYOMING

CITY           SKY/WX    TMP DP  RH WIND       PRES   REMARKS
EVANSTON       LGT SNOW  19  15  84 SW8       29.64F FOG     WCI   9
FORT BRIDGER   LGT SNOW  23  23 100 W18       29.67F WCI   8
ROCK SPRINGS   CLOUDY    24  21  88 NW6       29.62S WCI  17
DIXON          FLURRIES  24  22  96 CALM      29.59R
RAWLINS        LGT SNOW  26  23  88 NE23G33   29.58F VSB 3/4 WCI  11
SARATOGA       PTSUNNY   23  23 100 CALM      29.56F
LARAMIE        FLURRIES  27  21  78 SE18      29.62F WCI  14
CHEYENNE       CLOUDY    29  27  92 E6        29.70F WCI  23
TORRINGTON     LGT SNOW  31  29  92 NE20      29.75F FOG     WCI  19
PINE BLUFFS    CLOUDY    32  32 100 NE13G22   29.72F WCI  22

$$




USA.gov is the U.S. government's official web portal to all federal, state and local government web resources and services.